Location: LDNL
(36.4545°S, 141.6685°E)
Time: 05:03:30
(UTC+10:00)

Vanguard 2 Rocket - All Passes

Search period start: 10 August 2022 00:00
Search period end: 20 August 2022 00:00
Orbit: 553 x 3323 km, 32.9° (Epoch: 08 August)

Date Brightness Start Highest point End Pass type
(mag) Time Alt. Az. Time Alt. Az. Time Alt. Az.
10 Aug - 02:11:59 10° NNE 02:12:52 11° NNE 02:13:45 10° NE night (unlit)
10 Aug - 04:21:18 10° NW 04:25:01 40° NNE 04:29:33 10° E visible
10 Aug - 06:33:03 10° W 06:37:34 60° N 06:44:42 10° ENE visible
10 Aug - 08:45:08 10° W 08:50:56 39° NNW 09:00:35 10° NE daylight
10 Aug - 10:59:25 10° WNW 11:05:30 19° NNW 11:13:45 10° N daylight
11 Aug - 03:21:59 10° NW 03:25:29 28° NNE 03:29:06 10° E visible
11 Aug - 05:33:44 10° WNW 05:37:47 58° N 05:43:30 10° E visible
11 Aug - 07:45:41 10° W 07:50:44 45° NNW 07:59:00 10° NE daylight
11 Aug - 09:58:51 10° WNW 10:04:42 23° NNW 10:13:14 10° NNE daylight
12 Aug - 02:22:44 10° NNW 02:25:54 19° NNE 02:28:49 10° ENE night (unlit)
12 Aug - 04:34:19 10° WNW 04:38:09 51° N 04:42:48 10° E visible
12 Aug - 06:46:20 10° W 06:50:46 50° N 06:57:37 10° ENE visible
12 Aug - 08:58:52 10° WNW 09:04:11 27° NNW 09:12:18 10° NNE daylight
13 Aug - 01:23:40 10° N 01:26:10 14° NNE 01:28:23 10° NE night (unlit)
13 Aug - 03:34:44 10° WNW 03:38:35 40° NNE 03:42:31 10° E visible
13 Aug - 05:46:58 10° W 05:50:59 54° N 05:56:36 10° ENE visible
13 Aug - 07:59:12 10° W 08:03:58 32° NNW 08:11:15 10° NE daylight
13 Aug - 10:14:15 10° NW 10:18:02 14° NNW 10:22:40 10° N daylight
14 Aug - 02:35:01 10° NW 02:39:00 31° NNE 02:42:32 10° E night (unlit)
14 Aug - 04:47:28 10° WNW 04:51:20 55° N 04:55:59 10° ENE visible
14 Aug - 06:59:43 10° W 07:03:59 37° NNW 07:10:17 10° NE daylight
14 Aug - 09:13:19 10° WNW 09:17:30 17° NNW 09:23:02 10° NNE daylight
15 Aug - 01:35:09 10° NW 01:39:19 24° NNE 01:42:41 10° ENE night (unlit)
15 Aug - 03:47:45 10° WNW 03:51:45 50° N 03:55:47 10° E visible
15 Aug - 06:00:16 10° W 06:04:12 43° N 06:09:31 10° ENE visible
15 Aug - 08:13:10 10° WNW 08:17:14 21° NNW 08:22:50 10° NNE daylight
16 Aug - 00:35:14 10° NNW 00:39:28 19° NNE 00:42:47 10° ENE night (unlit)
16 Aug - 02:47:46 10° WNW 02:52:10 43° N 02:55:55 10° E night (unlit)
16 Aug - 05:00:42 10° W 05:04:32 49° N 05:09:04 10° ENE visible
16 Aug - 07:13:22 10° WNW 07:17:12 25° NNW 07:22:28 10° NE daylight
16 Aug - 23:35:27 10° NNW 23:39:26 15° NNE 23:42:36 10° NE night (unlit)
17 Aug - 01:47:30 10° NW 01:52:30 36° NNE 01:56:18 10° E night (unlit)
17 Aug - 04:00:55 10° W 04:04:56 53° N 04:08:59 10° ENE visible
17 Aug - 06:13:42 10° WNW 06:17:23 30° NNW 06:22:09 10° NE visible
17 Aug - 08:28:37 10° NW 08:30:31 11° NNW 08:32:40 10° N daylight
17 Aug - 22:36:19 10° N 22:39:09 12° NNE 22:41:36 10° NE night (unlit)
18 Aug - 00:46:59 10° NW 00:52:42 30° NNE 00:56:43 10° ENE night (unlit)
18 Aug - 03:00:47 10° WNW 03:05:20 53° N 03:09:12 10° E night (unlit)
18 Aug - 05:14:01 10° W 05:17:42 38° NNW 05:22:00 10° NE visible
18 Aug - 07:27:42 10° NW 07:30:26 15° NNW 07:33:44 10° NNE daylight
18 Aug - 23:46:22 10° NNW 23:52:42 25° NNE 23:57:05 10° ENE night (unlit)
19 Aug - 02:00:17 10° WNW 02:05:42 48° N 02:09:40 10° E night (unlit)
19 Aug - 04:14:08 10° W 04:18:07 47° N 04:22:05 10° ENE visible
19 Aug - 06:27:31 10° WNW 06:30:33 19° NNW 06:34:12 10° NNE visible
19 Aug - 22:45:45 10° NNW 22:52:29 21° NNE 22:57:13 10° ENE visible
